This demonstration page uses our WeatherBlox Daily Observations layout. Learn more.

Left ArrowRight Arrow

Hourly Observations for June 5, 2022

Temp ( °F °C ) Dew Point ( °F °C ) Humidity (%) Winds ( mph kmh ) Pressure ( in mb ) Visibility ( mi km ) Precip ( " mm )
12:15 am 00:15 Clear 64 18 50 10 60 60 NNW 6 9 29.93 1014 10 16 0.00 0.00
12:35 am 00:35 Clear 64 18 50 10 60 60 Calm 29.94 1014 10 16 0.00 0.00
12:55 am 00:55 Clear 64 18 50 10 60 60 Calm 29.94 1014 10 16 0.00 0.00
1:15 am 01:15 Clear 61 16 52 11 72 72 Calm 29.95 1014 10 16 0.00 0.00
1:35 am 01:35 Clear 61 16 52 11 72 72 Calm 29.95 1014 10 16 0.00 0.00
1:55 am 01:55 Clear 61 16 54 12 77 77 N 5 7 29.95 1014 10 16 0.00 0.00
2:15 am 02:15 Clear 63 17 50 10 64 64 Calm 29.95 1014 10 16 0.00 0.00
2:35 am 02:35 Clear 61 16 50 10 68 68 N 5 7 29.95 1014 10 16 0.00 0.00
2:55 am 02:55 Clear 61 16 50 10 68 68 N 5 7 29.95 1014 10 16 0.00 0.00
3:15 am 03:15 Clear 61 16 52 11 72 72 N 6 9 29.94 1014 10 16 0.00 0.00
3:35 am 03:35 Clear 61 16 50 10 68 68 N 5 7 29.94 1014 10 16 0.00 0.00
3:55 am 03:55 Clear 61 16 50 10 68 68 Calm 29.94 1014 10 16 0.00 0.00
4:15 am 04:15 Clear 61 16 48 9 63 63 NE 5 7 29.94 1014 10 16 0.00 0.00
4:35 am 04:35 Clear 63 17 46 8 56 56 NNE 7 11 29.95 1014 10 16 0.00 0.00
4:55 am 04:55 Clear 61 16 48 9 63 63 NNE 8 13 29.95 1014 10 16 0.00 0.00
5:15 am 05:15 Clear 61 16 46 8 59 59 NNE 8 13 29.96 1014 10 16 0.00 0.00
5:35 am 05:35 Clear 59 15 48 9 68 68 N 7 11 29.97 1015 10 16 0.00 0.00
5:55 am 05:55 Sunny 59 15 46 8 63 63 NNE 8 13 29.98 1015 10 16 0.00 0.00
6:15 am 06:15 Sunny 61 16 45 7 55 55 NNE 6 9 29.99 1015 10 16 0.00 0.00
6:35 am 06:35 Sunny 59 15 46 8 63 63 NNE 7 11 30.00 1016 10 16 0.00 0.00
6:55 am 06:55 Sunny 61 16 45 7 55 55 NE 9 15 30.01 1016 10 16 0.00 0.00
7:15 am 07:15 Sunny 61 16 45 7 55 55 NNE 8 13 30.02 1016 10 16 0.00 0.00
7:35 am 07:35 Sunny 63 17 45 7 52 52 NNE 6 9 30.02 1016 10 16 0.00 0.00
7:55 am 07:55 Sunny 63 17 45 7 52 52 NNE 6 9 30.03 1017 10 16 0.00 0.00
8:15 am 08:15 Sunny 63 17 46 8 56 56 NE 5 7 30.03 1017 10 16 0.00 0.00
8:35 am 08:35 Sunny 64 18 45 7 49 49 NNE 9 15 30.03 1017 10 16 0.00 0.00
8:55 am 08:55 Sunny 66 19 45 7 46 46 NE 7 11 30.04 1017 10 16 0.00 0.00
9:15 am 09:15 Sunny 66 19 45 7 46 46 ENE 7 11 30.04 1017 10 16 0.00 0.00
9:35 am 09:35 Sunny 68 20 46 8 46 46 E 5 7 30.04 1017 10 16 0.00 0.00
9:55 am 09:55 Sunny 70 21 45 7 40 40 ENE 9 15 30.04 1017 10 16 0.00 0.00
10:15 am 10:15 Sunny 70 21 45 7 40 40 NE 8 13 30.04 1017 10 16 0.00 0.00
10:35 am 10:35 Sunny 70 21 45 7 40 40 ENE 9 15 30.04 1017 10 16 0.00 0.00
10:55 am 10:55 Sunny 72 22 46 8 41 41 E 9 15 30.04 1017 10 16 0.00 0.00
11:15 am 11:15 Sunny 72 22 46 8 41 41 ENE 10 17 30.04 1017 10 16 0.00 0.00
11:35 am 11:35 Sunny 72 22 45 7 38 38 ESE 8 13 30.04 1017 10 16 0.00 0.00
11:55 am 11:55 Sunny 73 23 46 8 38 38 NE 7 11 30.04 1017 10 16 0.00 0.00
12:15 pm 12:15 Sunny 72 22 46 8 41 41 E 5 7 30.03 1017 10 16 0.00 0.00
12:35 pm 12:35 Sunny 73 23 46 8 38 38 NE 6 9 30.03 1017 10 16 0.00 0.00
12:55 pm 12:55 Sunny 73 23 46 8 38 38 SE 7 11 30.02 1016 10 16 0.00 0.00
1:15 pm 13:15 Sunny 75 24 45 7 34 34 Calm 30.02 1016 10 16 0.00 0.00
1:35 pm 13:35 Sunny 75 24 46 8 36 36 Calm 30.01 1016 10 16 0.00 0.00
1:55 pm 13:55 Sunny 77 25 46 8 34 34 SSE 5 7 30.00 1016 10 16 0.00 0.00
2:15 pm 14:15 Sunny 77 25 46 8 34 34 SSE 7 11 29.99 1016 10 16 0.00 0.00
2:55 pm 14:55 Sunny 77 25 45 7 32 32 E 5 7 29.98 1015 10 16 0.00 0.00
3:15 pm 15:15 Sunny 77 25 46 8 34 34 S 5 7 29.98 1015 10 16 0.00 0.00
3:35 pm 15:35 Sunny 79 26 48 9 34 34 SE 5 7 29.98 1015 10 16 0.00 0.00
3:55 pm 15:55 Sunny 79 26 48 9 34 34 Calm 29.97 1015 10 16 0.00 0.00
4:15 pm 16:15 Sunny 79 26 46 8 32 32 S 3 6 29.96 1015 10 16 0.00 0.00
4:35 pm 16:35 Sunny 79 26 48 9 34 34 ENE 5 7 29.96 1015 10 16 0.00 0.00
4:55 pm 16:55 Sunny 79 26 48 9 34 34 SE 7 11 29.96 1015 10 16 0.00 0.00
5:15 pm 17:15 Sunny 79 26 48 9 34 34 ESE 5 7 29.95 1014 N/A 0.00 0.00
5:35 pm 17:35 Sunny 79 26 48 9 34 34 SE 5 7 29.95 1014 N/A 0.00 0.00
5:55 pm 17:55 Sunny 79 26 48 9 34 34 NE 5 7 29.94 1014 N/A 0.00 0.00
6:15 pm 18:15 Sunny 79 26 48 9 34 34 ENE 7 11 29.94 1014 N/A 0.00 0.00
6:35 pm 18:35 Sunny 79 26 48 9 34 34 ENE 6 9 29.95 1014 N/A 0.00 0.00
6:55 pm 18:55 Sunny 77 25 48 9 36 36 E 5 7 29.95 1014 10 16 0.00 0.00
7:15 pm 19:15 Sunny 77 25 50 10 39 39 ESE 5 7 29.95 1014 10 16 0.00 0.00
7:35 pm 19:35 Sunny 77 25 50 10 39 39 ESE 3 6 29.95 1014 N/A 0.00 0.00
7:55 pm 19:55 Sunny 77 25 50 10 39 39 E 3 6 29.95 1014 N/A 0.00 0.00
8:15 pm 20:15 Sunny 75 24 50 10 41 41 E 3 6 29.96 1014 N/A 0.00 0.00
8:35 pm 20:35 Clear 73 23 50 10 44 44 ESE 5 7 29.97 1015 10 16 0.00 0.00
8:55 pm 20:55 Clear 73 23 50 10 44 44 SE 3 6 29.97 1015 10 16 0.00 0.00
9:15 pm 21:15 Clear 70 21 52 11 53 53 SSE 5 7 29.98 1015 10 16 0.00 0.00
9:35 pm 21:35 Clear 72 22 52 11 50 50 SSE 6 9 29.99 1016 10 16 0.00 0.00
9:55 pm 21:55 Clear 72 22 54 12 53 53 SSE 8 13 30.00 1016 10 16 0.00 0.00
10:15 pm 22:15 Clear 72 22 54 12 53 53 SSE 8 13 30.01 1016 10 16 0.00 0.00
10:35 pm 22:35 Clear 72 22 54 12 53 53 SSE 5 7 30.01 1016 10 16 0.00 0.00
10:55 pm 22:55 Clear 68 20 55 13 64 64 S 3 6 30.01 1016 10 16 0.00 0.00
11:15 pm 23:15 Clear 68 20 54 12 60 60 S 3 6 30.02 1017 10 16 0.00 0.00
11:35 pm 23:35 Clear 68 20 54 12 60 60 Calm 30.02 1017 10 16 0.00 0.00
11:55 pm 23:55 Clear 64 18 55 13 73 73 Calm 30.01 1016 10 16 0.00 0.00

Powered by AerisWeather